Regional Weather Roundup
Issued by NWS Charleston, SC

Current Version | Previous Version | Graphics & Text | Print | Product List | Glossary On
Versions: 1 2 3 4 5 6 7 8 9 10 11 12 13 14 15 16 17 18 19 20 21 22 23 24 25 26 27 28 29 30 31 32 33 34 35 36 37 38 39 40 41 42 43 44 45 46 47 48 49 50
000
ASUS42 KCHS 231912
RWRCHS

REGIONAL WEATHER ROUNDUP
NATIONAL WEATHER SERVICE CHARLESTON SC
300 PM EDT FRI JUN 23 2017

NOTE: "FAIR" INDICATES FEW OR NO CLOUDS BELOW 12,000 FEET WITH NO
SIGNIFICANT WEATHER AND/OR OBSTRUCTIONS TO VISIBILITY.

NOT ALL STATIONS ARE QUALITY CONTROLLED. USE DATA WITH CAUTION...
ESPECIALLY DEWPOINT OBSERVATIONS.

SCZ027-030-031-034>040-042>050-232000-
...SOUTHEAST SOUTH CAROLINA...

CITY           SKY/WX    TMP DP  RH WIND       PRES   REMARKS
N CHARLESTON   CLOUDY    89  76  65 SW15      30.00F HX 100
WATERFRONT PRK   N/A     84  77  79 SW7G15    30.01F HX  94
JOHNS ISLAND   CLOUDY    86  77  74 S16       30.02F HX  97
PINOPOLIS        N/A     86  79  79 VRB3      29.94F HX  99
MONCKS CORNER  MOCLDY    86  75  70 S10       29.99F HX  95
SUMMERVILLE    FAIR      90  77  66 S6        30.00F HX 102
BEAUFORT MCAS  MOSUNNY   89  81  77 S10G18    30.00F HX 108
BEAUFORT ARPT  FAIR      88  77  70 S13G18    30.01F HAZE    HX 100
HILTON HEAD IS MOSUNNY   86  77  74 S10G21    30.03F HX  97
WALTERBORO     MOCLDY    88  75  66 S3        30.00F HX  97
ALLENDALE      FAIR      91  75  59 VRB7      29.98F HX 102

...SOUTHERN MIDLANDS AND PEE DEE...

CITY           SKY/WX    TMP DP  RH WIND       PRES   REMARKS
GEORGETOWN     MOCLDY    86  79  79 S13       30.01F HX  99
KINGSTREE      MOCLDY    88  73  62 S6        29.98F HX  96
ORANGEBURG     PTSUNNY   90  73  57 SW8       29.98F HX  98
BARNWELL       CLOUDY    93  77  59 S8        29.98F HX 107
AIKEN          FAIR      90  68  48 SW10G22   30.02F HX  93
MANNING        FAIR      90  79  70 SW25      29.98F HX 105
COLUMBIA       PTSUNNY   94  70  45 SW10      29.95F HX 100
SUMTER         MOSUNNY   91  73  56 S12G17    29.95F HX  99
FLORENCE       MOSUNNY   90  74  59 SW15G21   29.97F HX  99
MYRTLE BEACH   MOSUNNY   86  77  74 S20       29.99F HX  97
N MYRTLE BEACH SUNNY     85  76  74 SW20G26   29.99F HX  94

$$

GAZ063-065-086>088-099>101-113>116-118-119-134>141-150-232000-
...SOUTHEAST GEORGIA...

CITY           SKY/WX    TMP DP  RH WIND       PRES   REMARKS
SAVANNAH ARPT  PTSUNNY   90  73  57 S12       30.00F HX  98
HUNTER AAF     MOSUNNY   89  77  67 S5        29.98F HX 102
FORT STEWART   MOSUNNY   91  74  57 S8        29.98F HX 101
STATESBORO     LGT RAIN  88  76  67 SW5       30.00F HX  99
SYLVANIA       PTCLDY    91  80  70 CALM      30.00F HX 107
CLAXTON        FAIR      83  75  76 CALM      30.00F HX  90

...CSRA...CENTRAL AND FAR SOUTHEAST GEORGIA...

CITY           SKY/WX    TMP DP  RH WIND       PRES   REMARKS
THOMSON        MOSUNNY   90  72  54 W10       30.02F HX  97
AUGUSTA-BUSH   MOSUNNY   94  71  47 SW10      29.97F HX 101
AUGUSTA-DANIEL SUNNY     95  67  39 SW12G23   29.98F HX  99
SWAINSBORO     MOCLDY    90  75  62 SW5       30.01F HX 100
VIDALIA        PTSUNNY   90  75  62 W7        30.00F HX 100
EASTMAN        FAIR      92  60  33 W12       30.02F HX  92
HAZLEHURST     MOCLDY    91  76  61 SW9       29.99F HX 103
ALMA           CLOUDY    90  74  59 SW6       30.00F HX  99
WAYCROSS       PTSUNNY   94  79  62 S7        30.00F HX 111
JESUP          MOCLDY    91  70  49 CALM      30.00F HX  97
BAXLEY         PTSUNNY   91  79  66 S9        29.99F HX 107
BRUNSWICK      MOSUNNY   90  79  70 SE14      30.02F HX 105
SAINT SIMONS   SUNNY     87  77  72 S13G21    30.02F HX  99

$$

SCZ027-028-034-036>038-045-046-048>050-GAZ119-141-232000-
...LAKE AND SUPPLEMENTAL COASTAL OBSERVATIONS...

STATION/POSITION TIME  TEMP    WIND        PRES    WAVE   SWELL
                       AIR SEA DIR/SP/G            HT/PER HT/PER/DIR
                 (UTC) (F)     (DEG/KT/KT) (MB)    (FT/S) (FT/S/D)
WINYAH BAY       1745   85     210/ 12     1016.0
LAKE MURRAY      1820   87     230/ 10/ 15 1014.2
ACE BASIN NERRS  NOT AVBL
FORT PULASKI     1836   84 84  180/  8/ 13 1017.1F
SAPELO ISLAND    1800   88     160/ 10     1017.0

$$

ANZ835-935-AMZ111-154-330-350-352-354-370-450-454-472-232000-
...C-MAN AND BUOY OBSERVATIONS...

STATION/POSITION TIME  TEMP    WIND        PRES    WAVE   SWELL
                       AIR SEA DIR/SP/G            HT/PER HT/PER/DIR
                 (UTC) (F)     (DEG/KT/KT) (MB)    (FT/S) (FT/S/D)
BUOY 41004       1850   81 81  210/ 16/ 19 1016.9F   4/ 8   2/120/ 8
BUOY 41008       1750   81 82  170/ 14/ 17 1017.2    3/ 8   2/100/ 8
FOLLY BEACH CMAN 1800   82     210/ 17/ 19 1017.8F
CAPERS NEARSHORE 1808   86 83  230/ 16/ 21 1017.0F
FRIPP NEARSHORE  1808   82 83  200/ 14/ 19 1016.9F


STATION/POSITION TIME  TEMP    WIND        PRES    WAVE   SWELL
                       AIR SEA DIR/SP/G            HT/PER HT/PER/DIR
                 (UTC) (F)     (DEG/KT/KT) (MB)    (FT/S) (FT/S/D)
5E ST. MARYS GA  1830      81                N/A     3/ 8
FRYING PAN BUOY  1850   82 81  230/ 17/ 21 1016.5F   4/ 9   2/130/ 9
BUOY 41025       1850   81 81  220/ 19/ 21 1015.2F   3/ 8   2/180/ 8
CAPE LOOKOUT NC  1800   83     210/ 15/ 20 1015.7F
BUOY 41002       1750   81 82  220/ 12/ 14 1019.5    4/ 8   3/100/ 8
BUOY 41010       1850   83 83  170/ 10/ 14 1018.3F   4/ 8   3/130/ 8
ST AUGUSTINE FL  1900   79 81  140/ 11/ 12 1017.3


$$




USA.gov is the U.S. government's official web portal to all federal, state and local government web resources and services.